Wetterdaten: Sonntag, 20.07.2003
Datum Zeit Temp. A. Feuchte A. Luftdruck Regen Wind Richtung Richtung Sonnenschein Helligkeit Taupunkt Windchill
20.07.2003 00:00 17,4 C 73 % 1018 hPa 0,0 l/m 0,0 m/s (0 Bft) O 90 0,00 min 0 lux 12,5 C 17,4 C
20.07.2003 00:05 17,1 C 74 % 1018 hPa 0,0 l/m 0,0 m/s (0 Bft) O 90 0,00 min 0 lux 12,4 C 17,1 C
20.07.2003 00:10 17,0 C 74 % 1018 hPa 0,0 l/m 0,0 m/s (0 Bft) O 90 0,00 min 0 lux 12,3 C 17,0 C
20.07.2003 00:15 16,9 C 75 % 1018 hPa 0,0 l/m 0,0 m/s (0 Bft) O 90 0,00 min 0 lux 12,4 C 16,9 C
20.07.2003 00:20 16,7 C 75 % 1018 hPa 0,0 l/m 0,0 m/s (0 Bft) O 90 0,00 min 0 lux 12,2 C 16,7 C
20.07.2003 00:25 16,6 C 76 % 1018 hPa 0,0 l/m 0,0 m/s (0 Bft) O 90 0,00 min 0 lux 12,3 C 16,6 C
20.07.2003 00:30 16,5 C 76 % 1018 hPa 0,0 l/m 0,0 m/s (0 Bft) O 90 0,00 min 0 lux 12,3 C 16,5 C
20.07.2003 00:35 16,5 C 76 % 1018 hPa 0,0 l/m 0,0 m/s (0 Bft) O 90 0,00 min 0 lux 12,3 C 16,5 C
20.07.2003 00:40 16,3 C 76 % 1018 hPa 0,0 l/m 0,0 m/s (0 Bft) O 90 0,00 min 0 lux 12,1 C 16,3 C
20.07.2003 00:45 16,3 C 76 % 1018 hPa 0,0 l/m 0,0 m/s (0 Bft) O 90 0,00 min 0 lux 12,1 C 16,3 C
20.07.2003 00:50 16,4 C 76 % 1018 hPa 0,0 l/m 0,0 m/s (0 Bft) O 90 0,00 min 0 lux 12,2 C 16,4 C
20.07.2003 00:55 16,2 C 77 % 1018 hPa 0,0 l/m 0,0 m/s (0 Bft) O 90 0,00 min 0 lux 12,2 C 16,2 C
20.07.2003 01:00 16,1 C 77 % 1018 hPa 0,0 l/m 0,0 m/s (0 Bft) O 90 0,00 min 0 lux 12,1 C 16,1 C
20.07.2003 01:05 16,0 C 77 % 1018 hPa 0,0 l/m 0,0 m/s (0 Bft) O 90 0,00 min 0 lux 12,0 C 16,0 C
20.07.2003 01:10 15,9 C 78 % 1018 hPa 0,0 l/m 0,0 m/s (0 Bft) O 90 0,00 min 0 lux 12,1 C 15,9 C
20.07.2003 01:15 15,8 C 78 % 1018 hPa 0,0 l/m 0,0 m/s (0 Bft) O 90 0,00 min 0 lux 12,0 C 15,8 C
20.07.2003 01:20 15,8 C 78 % 1018 hPa 0,0 l/m 0,0 m/s (0 Bft) O 90 0,00 min 0 lux 12,0 C 15,8 C
20.07.2003 01:25 15,7 C 79 % 1018 hPa 0,0 l/m 0,0 m/s (0 Bft) O 90 0,00 min 0 lux 12,1 C 15,7 C
20.07.2003 01:30 15,5 C 79 % 1018 hPa 0,0 l/m 0,0 m/s (0 Bft) O 90 0,00 min 0 lux 11,9 C 15,5 C
20.07.2003 01:35 15,5 C 79 % 1018 hPa 0,0 l/m 0,0 m/s (0 Bft) O 90 0,00 min 0 lux 11,9 C 15,5 C
20.07.2003 01:40 15,5 C 79 % 1018 hPa 0,0 l/m 0,0 m/s (0 Bft) O 90 0,00 min 0 lux 11,9 C 15,5 C
20.07.2003 01:45 15,3 C 79 % 1018 hPa 0,0 l/m 0,0 m/s (0 Bft) O 90 0,00 min 0 lux 11,7 C 15,3 C
20.07.2003 01:50 15,2 C 80 % 1018 hPa 0,0 l/m 0,0 m/s (0 Bft) O 90 0,00 min 0 lux 11,8 C 15,2 C
20.07.2003 01:55 15,2 C 80 % 1018 hPa 0,0 l/m 0,0 m/s (0 Bft) O 90 0,00 min 0 lux 11,8 C 15,2 C
20.07.2003 02:00 15,1 C 80 % 1018 hPa 0,0 l/m 0,0 m/s (0 Bft) O 90 0,00 min 0 lux 11,7 C 15,1 C
20.07.2003 02:05 15,0 C 80 % 1018 hPa 0,0 l/m 0,0 m/s (0 Bft) O 90 0,00 min 0 lux 11,6 C 15,0 C
20.07.2003 02:10 15,0 C 80 % 1018 hPa 0,0 l/m 0,0 m/s (0 Bft) O 90 0,00 min 0 lux 11,6 C 15,0 C
20.07.2003 02:15 15,0 C 81 % 1018 hPa 0,0 l/m 0,0 m/s (0 Bft) O 90 0,00 min 0 lux 11,8 C 15,0 C
20.07.2003 02:20 14,9 C 81 % 1018 hPa 0,0 l/m 0,0 m/s (0 Bft) O 90 0,00 min 0 lux 11,7 C 14,9 C
20.07.2003 02:25 14,7 C 81 % 1018 hPa 0,0 l/m 0,0 m/s (0 Bft) O 90 0,00 min 0 lux 11,5 C 14,7 C
20.07.2003 02:30 14,7 C 81 % 1018 hPa 0,0 l/m 0,0 m/s (0 Bft) O 90 0,00 min 0 lux 11,5 C 14,7 C
20.07.2003 02:35 14,6 C 82 % 1018 hPa 0,0 l/m 0,0 m/s (0 Bft) O 90 0,00 min 0 lux 11,6 C 14,6 C
20.07.2003 02:40 14,6 C 82 % 1018 hPa 0,0 l/m 0,0 m/s (0 Bft) O 90 0,00 min 0 lux 11,6 C 14,6 C
20.07.2003 02:45 14,6 C 82 % 1018 hPa 0,0 l/m 0,0 m/s (0 Bft) O 90 0,00 min 0 lux 11,6 C 14,6 C
20.07.2003 02:50 14,4 C 82 % 1018 hPa 0,0 l/m 0,0 m/s (0 Bft) O 90 0,00 min 0 lux 11,4 C 14,4 C
20.07.2003 02:55 14,4 C 82 % 1018 hPa 0,0 l/m 0,0 m/s (0 Bft) O 90 0,00 min 0 lux 11,4 C 14,4 C
20.07.2003 03:00 14,3 C 82 % 1018 hPa 0,0 l/m 0,0 m/s (0 Bft) O 90 0,00 min 0 lux 11,3 C 14,3 C
20.07.2003 03:05 14,3 C 82 % 1018 hPa 0,0 l/m 0,0 m/s (0 Bft) O 90 0,00 min 0 lux 11,3 C 14,3 C
20.07.2003 03:10 14,3 C 83 % 1018 hPa 0,0 l/m 0,0 m/s (0 Bft) O 90 0,00 min 0 lux 11,5 C 14,3 C
20.07.2003 03:15 14,1 C 83 % 1018 hPa 0,0 l/m 0,0 m/s (0 Bft) O 90 0,00 min 0 lux 11,3 C 14,1 C
20.07.2003 03:20 14,0 C 83 % 1018 hPa 0,0 l/m 0,0 m/s (0 Bft) O 90 0,00 min 0 lux 11,2 C 14,0 C
20.07.2003 03:25 13,9 C 84 % 1018 hPa 0,0 l/m 0,0 m/s (0 Bft) O 90 0,00 min 0 lux 11,2 C 13,9 C
20.07.2003 03:30 13,9 C 84 % 1018 hPa 0,0 l/m 0,0 m/s (0 Bft) O 90 0,00 min 0 lux 11,2 C 13,9 C
20.07.2003 03:35 13,8 C 84 % 1018 hPa 0,0 l/m 0,0 m/s (0 Bft) O 90 0,00 min 0 lux 11,1 C 13,8 C
20.07.2003 03:40 13,7 C 84 % 1018 hPa 0,0 l/m 0,0 m/s (0 Bft) O 90 0,00 min 0 lux 11,0 C 13,7 C
20.07.2003 03:45 13,7 C 85 % 1018 hPa 0,0 l/m 0,0 m/s (0 Bft) O 90 0,00 min 0 lux 11,2 C 13,7 C
20.07.2003 03:50 14,0 C 84 % 1018 hPa 0,0 l/m 0,0 m/s (0 Bft) O 90 0,00 min 0 lux 11,3 C 14,0 C
20.07.2003 03:55 13,7 C 85 % 1018 hPa 0,0 l/m 0,0 m/s (0 Bft) O 90 0,00 min 0 lux 11,2 C 13,7 C
20.07.2003 04:00 13,7 C 84 % 1018 hPa 0,0 l/m 0,0 m/s (0 Bft) O 90 0,00 min 0 lux 11,0 C 13,7 C
20.07.2003 04:05 13,6 C 84 % 1018 hPa 0,0 l/m 0,0 m/s (0 Bft) O 90 0,00 min 0 lux 10,9 C 13,6 C
20.07.2003 04:10 13,6 C 84 % 1018 hPa 0,0 l/m 0,0 m/s (0 Bft) O 90 0,00 min 0 lux 10,9 C 13,6 C
20.07.2003 04:15 13,7 C 85 % 1017 hPa 0,0 l/m 0,0 m/s (0 Bft) O 90 0,00 min 0 lux 11,2 C 13,7 C
20.07.2003 04:20 13,7 C 85 % 1017 hPa 0,0 l/m 0,0 m/s (0 Bft) O 90 0,00 min 0 lux 11,2 C 13,7 C
20.07.2003 04:25 13,6 C 85 % 1017 hPa 0,0 l/m 0,0 m/s (0 Bft) O 90 0,00 min 0 lux 11,1 C 13,6 C
20.07.2003 04:30 13,2 C 85 % 1017 hPa 0,0 l/m 0,0 m/s (0 Bft) O 90 0,00 min 0 lux 10,7 C 13,2 C
20.07.2003 04:35 13,1 C 86 % 1017 hPa 0,0 l/m 0,0 m/s (0 Bft) O 90 0,00 min 0 lux 10,8 C 13,1 C
20.07.2003 04:40 13,1 C 86 % 1017 hPa 0,0 l/m 0,0 m/s (0 Bft) O 90 0,00 min 0 lux 10,8 C 13,1 C
20.07.2003 04:45 13,2 C 86 % 1017 hPa 0,0 l/m 0,0 m/s (0 Bft) O 90 0,00 min 0 lux 10,9 C 13,2 C
20.07.2003 04:50 13,3 C 86 % 1017 hPa 0,0 l/m 0,0 m/s (0 Bft) O 90 0,00 min 0 lux 11,0 C 13,3 C
20.07.2003 04:55 13,3 C 86 % 1017 hPa 0,0 l/m 0,0 m/s (0 Bft) O 90 0,00 min 0 lux 11,0 C 13,3 C
20.07.2003 05:00 13,2 C 86 % 1017 hPa 0,0 l/m 0,0 m/s (0 Bft) O 90 0,00 min 0 lux 10,9 C 13,2 C
20.07.2003 05:05 13,2 C 86 % 1017 hPa 0,0 l/m 0,0 m/s (0 Bft) O 90 0,00 min 0 lux 10,9 C 13,2 C
20.07.2003 05:10 13,1 C 86 % 1017 hPa 0,0 l/m 0,0 m/s (0 Bft) O 95 0,00 min 37 lux 10,8 C 13,1 C
20.07.2003 05:15 12,9 C 86 % 1017 hPa 0,0 l/m 0,0 m/s (0 Bft) O 95 0,00 min 68 lux 10,6 C 12,9 C
20.07.2003 05:20 12,8 C 87 % 1017 hPa 0,0 l/m 0,0 m/s (0 Bft) O 95 0,00 min 92 lux 10,7 C 12,8 C
20.07.2003 05:25 12,7 C 87 % 1017 hPa 0,0 l/m 0,0 m/s (0 Bft) O 95 0,00 min 160 lux 10,6 C 12,7 C
20.07.2003 05:30 12,8 C 87 % 1017 hPa 0,0 l/m 0,0 m/s (0 Bft) O 95 0,00 min 268 lux 10,7 C 12,8 C
20.07.2003 05:35 12,7 C 87 % 1017 hPa 0,0 l/m 0,0 m/s (0 Bft) O 95 0,00 min 422 lux 10,6 C 12,7 C
20.07.2003 05:40 12,7 C 88 % 1017 hPa 0,0 l/m 0,0 m/s (0 Bft) O 95 0,00 min 628 lux 10,8 C 12,7 C
20.07.2003 05:45 12,7 C 88 % 1017 hPa 0,0 l/m 0,0 m/s (0 Bft) O 95 0,00 min 915 lux 10,8 C 12,7 C
20.07.2003 05:50 12,5 C 88 % 1017 hPa 0,0 l/m 0,0 m/s (0 Bft) O 95 0,00 min 1,28 klux 10,6 C 12,5 C
20.07.2003 05:55 12,5 C 88 % 1017 hPa 0,0 l/m 0,0 m/s (0 Bft) O 95 0,00 min 1,70 klux 10,6 C 12,5 C
20.07.2003 06:00 12,6 C 88 % 1017 hPa 0,0 l/m 0,0 m/s (0 Bft) O 95 0,00 min 2,16 klux 10,7 C 12,6 C
20.07.2003 06:05 12,6 C 88 % 1017 hPa 0,0 l/m 0,0 m/s (0 Bft) O 95 0,00 min 2,91 klux 10,7 C 12,6 C
20.07.2003 06:10 12,5 C 88 % 1017 hPa 0,0 l/m 0,0 m/s (0 Bft) O 95 0,00 min 3,45 klux 10,6 C 12,5 C
20.07.2003 06:15 12,6 C 88 % 1017 hPa 0,0 l/m 0,0 m/s (0 Bft) O 95 0,00 min 3,71 klux 10,7 C 12,6 C
20.07.2003 06:20 12,5 C 88 % 1017 hPa 0,0 l/m 0,0 m/s (0 Bft) O 95 0,00 min 4,25 klux 10,6 C 12,5 C
20.07.2003 06:25 12,6 C 88 % 1017 hPa 0,0 l/m 0,0 m/s (0 Bft) O 95 0,00 min 4,78 klux 10,7 C 12,6 C
20.07.2003 06:30 12,9 C 88 % 1017 hPa 0,0 l/m 0,0 m/s (0 Bft) O 95 0,00 min 5,36 klux 11,0 C 12,9 C
20.07.2003 06:35 12,9 C 88 % 1017 hPa 0,0 l/m 0,0 m/s (0 Bft) O 95 0,00 min 5,92 klux 11,0 C 12,9 C
20.07.2003 06:40 13,0 C 87 % 1017 hPa 0,0 l/m 0,0 m/s (0 Bft) O 95 5,00 min 12,4 klux 10,9 C 13,0 C
20.07.2003 06:45 13,2 C 87 % 1017 hPa 0,0 l/m 0,0 m/s (0 Bft) O 95 0,00 min 10,2 klux 11,1 C 13,2 C
20.07.2003 06:50 13,2 C 87 % 1017 hPa 0,0 l/m 0,0 m/s (0 Bft) O 95 0,00 min 12,0 klux 11,1 C 13,2 C
20.07.2003 06:55 13,5 C 86 % 1017 hPa 0,0 l/m 0,0 m/s (0 Bft) O 95 5,00 min 18,5 klux 11,2 C 13,5 C
20.07.2003 07:00 13,5 C 85 % 1017 hPa 0,0 l/m 0,0 m/s (0 Bft) O 95 0,00 min 13,1 klux 11,0 C 13,5 C
20.07.2003 07:05 13,5 C 84 % 1017 hPa 0,0 l/m 0,0 m/s (0 Bft) O 95 0,00 min 15,4 klux 10,8 C 13,5 C
20.07.2003 07:10 13,5 C 84 % 1017 hPa 0,0 l/m 0,0 m/s (0 Bft) O 95 0,00 min 8,43 klux 10,8 C 13,5 C
20.07.2003 07:15 13,7 C 84 % 1017 hPa 0,0 l/m 0,0 m/s (0 Bft) O 95 0,00 min 8,86 klux 11,0 C 13,7 C
20.07.2003 07:20 14,0 C 84 % 1017 hPa 0,0 l/m 0,0 m/s (0 Bft) O 95 0,00 min 9,3 klux 11,3 C 14,0 C
20.07.2003 07:25 14,1 C 83 % 1017 hPa 0,0 l/m 0,0 m/s (0 Bft) O 95 5,00 min 20,5 klux 11,3 C 14,1 C
20.07.2003 07:30 14,2 C 83 % 1017 hPa 0,0 l/m 0,0 m/s (0 Bft) O 95 5,00 min 31,9 klux 11,4 C 14,2 C
20.07.2003 07:35 15,2 C 82 % 1017 hPa 0,0 l/m 0,0 m/s (0 Bft) O 95 5,00 min 33,5 klux 12,1 C 15,2 C
20.07.2003 07:40 15,4 C 81 % 1017 hPa 0,0 l/m 0,0 m/s (0 Bft) O 95 5,00 min 35,2 klux 12,2 C 15,4 C
20.07.2003 07:45 15,7 C 80 % 1017 hPa 0,0 l/m 0,0 m/s (0 Bft) O-SO 105 5,00 min 36,6 klux 12,3 C 15,7 C
20.07.2003 07:50 16,3 C 77 % 1017 hPa 0,0 l/m 0,0 m/s (0 Bft) O-SO 110 5,00 min 38,1 klux 12,3 C 16,3 C
20.07.2003 07:55 16,8 C 75 % 1017 hPa 0,0 l/m 0,0 m/s (0 Bft) O-SO 120 5,00 min 38,1 klux 12,3 C 16,8 C
20.07.2003 08:00 19,0 C 64 % 1017 hPa 0,0 l/m 0,0 m/s (0 Bft) SO 125 5,00 min 40,6 klux 12,0 C 19,0 C
20.07.2003 08:05 20,2 C 56 % 1017 hPa 0,0 l/m 0,0 m/s (0 Bft) SO 125 5,00 min 42,4 klux 11,1 C 20,2 C
20.07.2003 08:10 21,1 C 54 % 1017 hPa 0,0 l/m 0,0 m/s (0 Bft) SO 125 5,00 min 44,0 klux 11,4 C 21,1 C
20.07.2003 08:15 21,7 C 52 % 1017 hPa 0,0 l/m 0,0 m/s (0 Bft) SO 125 5,00 min 45,4 klux 11,4 C 21,7 C
20.07.2003 08:20 22,4 C 49 % 1017 hPa 0,0 l/m 0,0 m/s (0 Bft) S-SO45 160 5,00 min 47,0 klux 11,2 C 22,4 C
20.07.2003 08:25 23,1 C 48 % 1017 hPa 0,0 l/m 0,0 m/s (0 Bft) W-SW 240 5,00 min 48,1 klux 11,5 C 23,1 C
20.07.2003 08:30 24,2 C 46 % 1017 hPa 0,0 l/m 0,0 m/s (0 Bft) S45 180 5,00 min 49,8 klux 11,8 C 24,2 C
20.07.2003 08:35 24,1 C 46 % 1017 hPa 0,0 l/m 0,0 m/s (0 Bft) S-SO 150 5,00 min 50,7 klux 11,7 C 24,1 C
20.07.2003 08:40 24,0 C 47 % 1017 hPa 0,0 l/m 1,9 m/s (1 Bft) O22.5 100 5,00 min 51,6 klux 12,0 C 23,9 C
20.07.2003 08:45 22,8 C 50 % 1017 hPa 0,0 l/m 2,8 m/s (1 Bft) O-SO45 105 5,00 min 53,0 klux 11,8 C 21,8 C
20.07.2003 08:50 22,3 C 54 % 1017 hPa 0,0 l/m 3,1 m/s (1 Bft) O-SO22.5 105 5,00 min 54,1 klux 12,5 C 20,9 C
20.07.2003 08:55 22,4 C 54 % 1017 hPa 0,0 l/m 3,4 m/s (1 Bft) O-SO22.5 105 5,00 min 55,3 klux 12,6 C 20,7 C
20.07.2003 09:00 22,6 C 54 % 1017 hPa 0,0 l/m 2,8 m/s (1 Bft) O45 100 5,00 min 56,6 klux 12,8 C 21,5 C
20.07.2003 09:05 22,9 C 51 % 1017 hPa 0,0 l/m 3,8 m/s (1 Bft) O22.5 100 5,00 min 58,0 klux 12,2 C 21,0 C
20.07.2003 09:10 22,9 C 50 % 1017 hPa 0,0 l/m 3,8 m/s (1 Bft) O22.5 95 5,00 min 59,3 klux 11,9 C 21,0 C
20.07.2003 09:15 22,9 C 50 % 1017 hPa 0,0 l/m 4,3 m/s (1 Bft) O22.5 100 5,00 min 60,6 klux 11,9 C 20,7 C
20.07.2003 09:20 23,4 C 49 % 1017 hPa 0,0 l/m 5,4 m/s (1 Bft) O45 100 5,00 min 61,9 klux 12,1 C 20,7 C
20.07.2003 09:25 23,7 C 49 % 1017 hPa 0,0 l/m 3,5 m/s (1 Bft) O-SO22.5 105 5,00 min 63,4 klux 12,3 C 22,2 C
20.07.2003 09:30 23,9 C 48 % 1017 hPa 0,0 l/m 4,4 m/s (1 Bft) O-SO22.5 110 5,00 min 64,5 klux 12,2 C 21,8 C
20.07.2003 09:35 24,2 C 48 % 1016 hPa 0,0 l/m 2,2 m/s (1 Bft) O-SO45 105 5,00 min 66,3 klux 12,5 C 23,8 C
20.07.2003 09:40 24,4 C 47 % 1016 hPa 0,0 l/m 3,6 m/s (1 Bft) O45 90 5,00 min 66,7 klux 12,3 C 22,9 C
20.07.2003 09:45 24,6 C 46 % 1016 hPa 0,0 l/m 5,0 m/s (1 Bft) O-SO45 105 5,00 min 68,4 klux 12,2 C 22,4 C
20.07.2003 09:50 24,7 C 46 % 1016 hPa 0,0 l/m 4,4 m/s (1 Bft) O-SO22.5 115 5,00 min 69,8 klux 12,3 C 22,8 C
20.07.2003 09:55 24,7 C 44 % 1016 hPa 0,0 l/m 5,1 m/s (1 Bft) O22.5 100 5,00 min 70,6 klux 11,6 C 22,5 C
20.07.2003 10:00 24,9 C 45 % 1016 hPa 0,0 l/m 5,1 m/s (1 Bft) O-SO22.5 115 5,00 min 72,2 klux 12,1 C 22,7 C
20.07.2003 10:05 25,2 C 44 % 1016 hPa 0,0 l/m 3,9 m/s (1 Bft) O-SO45 120 5,00 min 73,2 klux 12,1 C 23,7 C
20.07.2003 10:10 25,6 C 43 % 1016 hPa 0,0 l/m 3,7 m/s (1 Bft) O-SO45 105 5,00 min 74,8 klux 12,1 C 24,3 C
20.07.2003 10:15 25,8 C 43 % 1016 hPa 0,0 l/m 5,1 m/s (1 Bft) SO45 125 5,00 min 75,6 klux 12,3 C 23,9 C
20.07.2003 10:20 26,2 C 41 % 1016 hPa 0,0 l/m 3,9 m/s (1 Bft) O-SO22.5 105 5,00 min 76,7 klux 11,9 C 24,9 C
20.07.2003 10:25 26,3 C 41 % 1016 hPa 0,0 l/m 6,7 m/s (2 Bft) O-SO45 115 5,00 min 78,5 klux 12,0 C 24,0 C
20.07.2003 10:30 26,3 C 40 % 1016 hPa 0,0 l/m 5,0 m/s (1 Bft) O-SO67.5 120 5,00 min 79,8 klux 11,6 C 24,5 C
20.07.2003 10:35 26,9 C 41 % 1016 hPa 0,0 l/m 4,1 m/s (1 Bft) O-SO45 120 5,00 min 79,8 klux 12,5 C 25,7 C
20.07.2003 10:40 27,1 C 40 % 1016 hPa 0,0 l/m 3,2 m/s (1 Bft) O-SO45 120 5,00 min 81,4 klux 12,3 C 26,3 C
20.07.2003 10:45 27,1 C 39 % 1016 hPa 0,0 l/m 4,8 m/s (1 Bft) SO45 130 5,00 min 82,6 klux 11,9 C 25,6 C
20.07.2003 10:50 27,2 C 38 % 1016 hPa 0,0 l/m 5,5 m/s (1 Bft) SO45 125 5,00 min 83,6 klux 11,6 C 25,5 C
20.07.2003 10:55 27,2 C 38 % 1016 hPa 0,0 l/m 6,9 m/s (2 Bft) O-SO22.5 110 5,00 min 84,8 klux 11,6 C 25,1 C
20.07.2003 11:00 27,4 C 37 % 1016 hPa 0,0 l/m 7,3 m/s (2 Bft) SO22.5 135 5,00 min 85,3 klux 11,4 C 25,3 C
20.07.2003 11:05 27,9 C 39 % 1016 hPa 0,0 l/m 5,7 m/s (1 Bft) SO45 135 5,00 min 86,5 klux 12,6 C 26,4 C
20.07.2003 11:10 27,9 C 38 % 1016 hPa 0,0 l/m 4,2 m/s (1 Bft) O-SO45 120 5,00 min 86,0 klux 12,2 C 26,8 C
20.07.2003 11:15 28,0 C 37 % 1016 hPa 0,0 l/m 3,5 m/s (1 Bft) SO45 140 5,00 min 88,7 klux 11,9 C 27,2 C
20.07.2003 11:20 28,2 C 36 % 1016 hPa 0,0 l/m 3,6 m/s (1 Bft) SO45 130 5,00 min 88,7 klux 11,7 C 27,4 C
20.07.2003 11:25 28,5 C 36 % 1016 hPa 0,0 l/m 3,3 m/s (1 Bft) SO22.5 135 5,00 min 89,3 klux 12,0 C 27,8 C
20.07.2003 11:30 28,4 C 35 % 1016 hPa 0,0 l/m 6,6 m/s (2 Bft) O-SO45 120 5,00 min 90,2 klux 11,4 C 26,8 C
20.07.2003 11:35 28,6 C 35 % 1016 hPa 0,0 l/m 5,0 m/s (1 Bft) O-SO45 120 5,00 min 90,9 klux 11,6 C 27,5 C
20.07.2003 11:40 28,9 C 35 % 1016 hPa 0,0 l/m 6,7 m/s (2 Bft) O-SO45 120 5,00 min 92,0 klux 11,9 C 27,5 C
20.07.2003 11:45 28,9 C 34 % 1016 hPa 0,0 l/m 5,2 m/s (1 Bft) SO67.5 140 5,00 min 93,1 klux 11,4 C 27,8 C
20.07.2003 11:50 29,0 C 34 % 1016 hPa 0,0 l/m 5,0 m/s (1 Bft) SO45 125 5,00 min 93,7 klux 11,5 C 28,0 C
20.07.2003 11:55 29,1 C 33 % 1016 hPa 0,0 l/m 5,4 m/s (1 Bft) O-SO45 110 5,00 min 93,8 klux 11,2 C 28,0 C
20.07.2003 12:00 29,1 C 33 % 1016 hPa 0,0 l/m 5,2 m/s (1 Bft) SO67.5 125 5,00 min 94,2 klux 11,2 C 28,0 C
20.07.2003 12:05 29,4 C 33 % 1016 hPa 0,0 l/m 5,5 m/s (1 Bft) SO67.5 125 5,00 min 95,3 klux 11,4 C 28,4 C
20.07.2003 12:10 29,3 C 31 % 1016 hPa 0,0 l/m 6,8 m/s (2 Bft) O-SO22.5 115 5,00 min 95,2 klux 10,4 C 28,0 C
20.07.2003 12:15 29,6 C 32 % 1016 hPa 0,0 l/m 6,4 m/s (2 Bft) O-SO45 115 5,00 min 96,3 klux 11,1 C 28,5 C
20.07.2003 12:20 29,6 C 32 % 1016 hPa 0,0 l/m 5,8 m/s (2 Bft) SO45 125 5,00 min 96,8 klux 11,1 C 28,6 C
20.07.2003 12:25 29,7 C 31 % 1016 hPa 0,0 l/m 5,8 m/s (2 Bft) SO45 135 5,00 min 97,1 klux 10,7 C 28,7 C
20.07.2003 12:30 30,1 C 31 % 1016 hPa 0,0 l/m 4,8 m/s (1 Bft) O-SO67.5 115 5,00 min 97,0 klux 11,1 C 29,4 C
20.07.2003 12:35 30,0 C 32 % 1016 hPa 0,0 l/m 5,3 m/s (1 Bft) SO45 125 5,00 min 97,7 klux 11,5 C 29,2 C
20.07.2003 12:40 30,1 C 31 % 1016 hPa 0,0 l/m 3,5 m/s (1 Bft) SO45 125 5,00 min 97,8 klux 11,1 C 29,6 C
20.07.2003 12:45 30,3 C 31 % 1015 hPa 0,0 l/m 6,6 m/s (2 Bft) O-SO45 115 5,00 min 97,8 klux 11,3 C 29,4 C
20.07.2003 12:50 30,4 C 30 % 1015 hPa 0,0 l/m 6,0 m/s (2 Bft) O-SO45 110 5,00 min 98,2 klux 10,9 C 29,6 C
20.07.2003 12:55 30,4 C 30 % 1015 hPa 0,0 l/m 5,8 m/s (2 Bft) SO45 135 5,00 min 99,0 klux 10,9 C 29,6 C
20.07.2003 13:00 30,4 C 30 % 1015 hPa 0,0 l/m 5,2 m/s (1 Bft) SO45 125 5,00 min 100 klux 10,9 C 29,7 C
20.07.2003 13:05 30,6 C 31 % 1015 hPa 0,0 l/m 3,6 m/s (1 Bft) SO45 135 5,00 min 100 klux 11,5 C 30,2 C
20.07.2003 13:10 30,9 C 31 % 1015 hPa 0,0 l/m 3,6 m/s (1 Bft) SO22.5 130 5,00 min 99 klux 11,8 C 30,5 C
20.07.2003 13:15 31,2 C 30 % 1015 hPa 0,0 l/m 5,3 m/s (1 Bft) O-SO22.5 105 5,00 min 100 klux 11,5 C 30,7 C
20.07.2003 13:20 31,2 C 29 % 1015 hPa 0,0 l/m 4,9 m/s (1 Bft) SO45 130 5,00 min 100 klux 11,0 C 30,7 C
20.07.2003 13:25 31,2 C 29 % 1015 hPa 0,0 l/m 4,1 m/s (1 Bft) SO45 125 5,00 min 99 klux 11,0 C 30,8 C
20.07.2003 13:30 31,2 C 28 % 1015 hPa 0,0 l/m 3,9 m/s (1 Bft) SO45 130 5,00 min 100 klux 10,5 C 30,9 C
20.07.2003 13:35 31,3 C 28 % 1015 hPa 0,0 l/m 3,1 m/s (1 Bft) SO45 135 5,00 min 100 klux 10,6 C 31,1 C
20.07.2003 13:40 31,4 C 28 % 1015 hPa 0,0 l/m 3,6 m/s (1 Bft) O-SO45 115 5,00 min 100 klux 10,7 C 31,1 C
20.07.2003 13:45 31,4 C 28 % 1015 hPa 0,0 l/m 6,6 m/s (2 Bft) O-SO45 110 5,00 min 100 klux 10,7 C 30,9 C
20.07.2003 13:50 31,4 C 28 % 1015 hPa 0,0 l/m 5,0 m/s (1 Bft) SO67.5 135 5,00 min 100 klux 10,7 C 31,0 C
20.07.2003 13:55 31,5 C 27 % 1015 hPa 0,0 l/m 9,1 m/s (2 Bft) SO45 135 5,00 min 100 klux 10,2 C 30,9 C
20.07.2003 14:00 31,5 C 27 % 1015 hPa 0,0 l/m 6,4 m/s (2 Bft) SO45 140 5,00 min 100 klux 10,2 C 31,0 C
20.07.2003 14:05 31,9 C 28 % 1014 hPa 0,0 l/m 2,1 m/s (1 Bft) S-SO67.5 160 5,00 min 100 klux 11,1 C 31,9 C
20.07.2003 14:10 32,1 C 27 % 1014 hPa 0,0 l/m 0,7 m/s (0 Bft) SO67.5 135 5,00 min 100 klux 10,7 C 32,1 C
20.07.2003 14:15 32,2 C 28 % 1014 hPa 0,0 l/m 3,5 m/s (1 Bft) O-SO45 115 5,00 min 98,8 klux 11,3 C 32,1 C
20.07.2003 14:20 32,1 C 27 % 1014 hPa 0,0 l/m 3,0 m/s (1 Bft) O-SO45 115 5,00 min 98,5 klux 10,7 C 32,0 C
20.07.2003 14:25 32,2 C 28 % 1014 hPa 0,0 l/m 4,1 m/s (1 Bft) S-SO67.5 155 5,00 min 98,6 klux 11,3 C 32,0 C
20.07.2003 14:30 32,2 C 28 % 1014 hPa 0,0 l/m 2,9 m/s (1 Bft) S67.5 170 5,00 min 97,3 klux 11,3 C 32,1 C
20.07.2003 14:35 32,3 C 26 % 1014 hPa 0,0 l/m 4,8 m/s (1 Bft) O-SO45 120 5,00 min 97,3 klux 10,3 C 32,1 C
20.07.2003 14:40 32,5 C 27 % 1014 hPa 0,0 l/m 4,2 m/s (1 Bft) SO67.5 135 5,00 min 97,6 klux 11,1 C 32,4 C
20.07.2003 14:45 32,7 C 25 % 1014 hPa 0,0 l/m 4,8 m/s (1 Bft) SO67.5 140 5,00 min 97,3 klux 10,1 C 32,6 C
20.07.2003 14:50 32,4 C 25 % 1014 hPa 0,0 l/m 5,4 m/s (1 Bft) SO67.5 125 5,00 min 97,1 klux 9,8 C 32,2 C
20.07.2003 14:55 32,6 C 25 % 1014 hPa 0,0 l/m 3,6 m/s (1 Bft) SO22.5 125 5,00 min 96,8 klux 10,0 C 32,5 C
20.07.2003 15:00 32,4 C 25 % 1014 hPa 0,0 l/m 5,3 m/s (1 Bft) O-SO45 120 5,00 min 96,8 klux 9,8 C 32,2 C
20.07.2003 15:05 32,6 C 25 % 1014 hPa 0,0 l/m 5,6 m/s (1 Bft) O-SO45 120 5,00 min 95,4 klux 10,0 C 32,5 C
20.07.2003 15:10 32,8 C 25 % 1014 hPa 0,0 l/m 4,7 m/s (1 Bft) SO45 125 5,00 min 95,5 klux 10,2 C 32,8 C
20.07.2003 15:15 33,0 C 25 % 1014 hPa 0,0 l/m 3,0 m/s (1 Bft) SO45 140 5,00 min 94,5 klux 10,3 C 33,0 C
20.07.2003 15:20 32,8 C 24 % 1014 hPa 0,0 l/m 5,9 m/s (2 Bft) O-SO45 115 5,00 min 93,3 klux 9,5 C 32,7 C
20.07.2003 15:25 32,7 C 24 % 1014 hPa 0,0 l/m 5,9 m/s (2 Bft) O-SO45 115 5,00 min 92,2 klux 9,5 C 32,6 C
20.07.2003 15:30 32,5 C 24 % 1013 hPa 0,0 l/m 6,1 m/s (2 Bft) O-SO67.5 120 5,00 min 93,0 klux 9,3 C 32,3 C
20.07.2003 15:35 32,8 C 25 % 1013 hPa 0,0 l/m 5,2 m/s (1 Bft) O-SO45 105 5,00 min 92,3 klux 10,2 C 32,7 C
20.07.2003 15:40 32,7 C 25 % 1013 hPa 0,0 l/m 5,9 m/s (2 Bft) O-SO45 115 5,00 min 93,0 klux 10,1 C 32,6 C
20.07.2003 15:45 32,9 C 25 % 1013 hPa 0,0 l/m 6,6 m/s (2 Bft) O-SO45 110 5,00 min 90,2 klux 10,2 C 32,9 C
20.07.2003 15:50 32,8 C 22 % 1013 hPa 0,0 l/m 6,6 m/s (2 Bft) O-SO45 110 5,00 min 90,7 klux 8,3 C 32,7 C
20.07.2003 15:55 33,0 C 21 % 1013 hPa 0,0 l/m 5,4 m/s (1 Bft) SO67.5 125 5,00 min 89,9 klux 7,7 C 33,0 C
20.07.2003 16:00 33,2 C 22 % 1013 hPa 0,0 l/m 4,2 m/s (1 Bft) SO45 130 5,00 min 88,0 klux 8,6 C 33,2 C
20.07.2003 16:05 33,2 C 22 % 1013 hPa 0,0 l/m 5,1 m/s (1 Bft) SO45 130 5,00 min 87,9 klux 8,6 C 33,2 C
20.07.2003 16:10 33,2 C 23 % 1013 hPa 0,0 l/m 4,4 m/s (1 Bft) O-SO45 120 5,00 min 84,0 klux 9,2 C 33,2 C
20.07.2003 16:15 33,2 C 23 % 1013 hPa 0,0 l/m 3,5 m/s (1 Bft) O-SO22.5 115 5,00 min 85,4 klux 9,2 C 33,2 C
20.07.2003 16:20 32,8 C 23 % 1013 hPa 0,0 l/m 5,5 m/s (1 Bft) O-SO45 110 5,00 min 73,2 klux 8,9 C 32,7 C
20.07.2003 16:25 32,7 C 23 % 1013 hPa 0,0 l/m 5,7 m/s (1 Bft) SO45 125 5,00 min 62,5 klux 8,8 C 32,6 C
20.07.2003 16:30 32,2 C 24 % 1013 hPa 0,0 l/m 5,2 m/s (1 Bft) SO67.5 130 0,00 min 49,5 klux 9,0 C 32,0 C
20.07.2003 16:35 32,3 C 24 % 1013 hPa 0,0 l/m 5,4 m/s (1 Bft) SO67.5 130 5,00 min 59,4 klux 9,1 C 32,1 C
20.07.2003 16:40 32,4 C 23 % 1013 hPa 0,0 l/m 3,2 m/s (1 Bft) SO45 125 5,00 min 65,0 klux 8,6 C 32,3 C
20.07.2003 16:45 32,7 C 24 % 1013 hPa 0,0 l/m 2,5 m/s (1 Bft) O-SO45 110 5,00 min 78,3 klux 9,5 C 32,7 C
20.07.2003 16:50 33,0 C 23 % 1013 hPa 0,0 l/m 4,7 m/s (1 Bft) O-SO45 115 5,00 min 79,8 klux 9,1 C 33,0 C
20.07.2003 16:55 32,8 C 24 % 1013 hPa 0,0 l/m 5,3 m/s (1 Bft) O-SO45 120 5,00 min 73,2 klux 9,5 C 32,7 C
20.07.2003 17:00 33,2 C 23 % 1012 hPa 0,0 l/m 6,3 m/s (2 Bft) O-SO45 115 5,00 min 76,0 klux 9,2 C 33,2 C
20.07.2003 17:05 32,8 C 25 % 1012 hPa 0,0 l/m 3,6 m/s (1 Bft) O-SO22.5 115 5,00 min 56,9 klux 10,2 C 32,8 C
20.07.2003 17:10 32,0 C 25 % 1012 hPa 0,0 l/m 5,1 m/s (1 Bft) O-SO45 120 0,00 min 13,7 klux 9,5 C 31,7 C
20.07.2003 17:15 31,9 C 26 % 1012 hPa 0,0 l/m 4,6 m/s (1 Bft) SO45 135 0,00 min 14,8 klux 10,0 C 31,6 C
20.07.2003 17:20 31,6 C 26 % 1012 hPa 0,0 l/m 5,3 m/s (1 Bft) O-SO45 110 0,00 min 14,5 klux 9,7 C 31,2 C
20.07.2003 17:25 31,5 C 27 % 1012 hPa 0,0 l/m 4,2 m/s (1 Bft) O-SO22.5 115 0,00 min 12,4 klux 10,2 C 31,2 C
20.07.2003 17:30 31,4 C 27 % 1012 hPa 0,0 l/m 2,9 m/s (1 Bft) O-SO22.5 115 0,00 min 14,0 klux 10,1 C 31,2 C
20.07.2003 17:35 31,2 C 28 % 1012 hPa 0,0 l/m 1,5 m/s (1 Bft) O-SO22.5 115 0,00 min 15,1 klux 10,5 C 31,2 C
20.07.2003 17:40 31,1 C 29 % 1012 hPa 0,0 l/m 0,4 m/s (0 Bft) SO22.5 140 0,00 min 15,6 klux 10,9 C 31,1 C
20.07.2003 17:45 30,8 C 32 % 1012 hPa 0,0 l/m 0,1 m/s (0 Bft) O-SO45 110 0,00 min 15,4 klux 12,2 C 30,8 C
20.07.2003 17:50 30,8 C 31 % 1012 hPa 0,0 l/m 0,0 m/s (0 Bft) O22.5 95 0,00 min 12,0 klux 11,7 C 30,8 C
20.07.2003 17:55 30,1 C 33 % 1012 hPa 0,0 l/m 0,0 m/s (0 Bft) O 90 0,00 min 6,84 klux 12,0 C 30,1 C
20.07.2003 18:00 29,8 C 34 % 1012 hPa 0,0 l/m 0,0 m/s (0 Bft) NO22.5 45 0,00 min 3,67 klux 12,2 C 29,8 C
20.07.2003 18:05 29,5 C 34 % 1012 hPa 0,0 l/m 0,0 m/s (0 Bft) O22.5 85 0,00 min 2,68 klux 12,0 C 29,5 C
20.07.2003 18:10 28,8 C 40 % 1012 hPa 0,0 l/m 0,0 m/s (0 Bft) O 90 0,00 min 2,35 klux 13,8 C 28,8 C
20.07.2003 18:15 28,5 C 42 % 1013 hPa 0,0 l/m 0,0 m/s (0 Bft) O-SO22.5 115 0,00 min 3,89 klux 14,3 C 28,5 C
20.07.2003 18:20 28,2 C 43 % 1013 hPa 0,0 l/m 0,8 m/s (0 Bft) O45 80 0,00 min 5,61 klux 14,4 C 28,2 C
20.07.2003 18:25 28,7 C 45 % 1013 hPa 0,0 l/m 5,1 m/s (1 Bft) NW 325 0,00 min 6,67 klux 15,6 C 27,6 C
20.07.2003 18:30 29,2 C 32 % 1013 hPa 0,0 l/m 3,1 m/s (1 Bft) W-SW22.5 255 0,00 min 6,99 klux 10,8 C 28,7 C
20.07.2003 18:35 29,0 C 33 % 1013 hPa 0,0 l/m 6,4 m/s (2 Bft) W-NW45 295 0,00 min 7,46 klux 11,1 C 27,7 C
20.07.2003 18:40 27,9 C 38 % 1013 hPa 0,0 l/m 8,9 m/s (2 Bft) NW45 305 0,00 min 8,07 klux 12,2 C 25,7 C
20.07.2003 18:45 27,5 C 40 % 1013 hPa 0,0 l/m 6,9 m/s (2 Bft) W-NW45 300 0,00 min 10,2 klux 12,7 C 25,6 C
20.07.2003 18:50 27,6 C 40 % 1013 hPa 0,0 l/m 4,9 m/s (1 Bft) W-NW45 295 0,00 min 15,4 klux 12,8 C 26,2 C
20.07.2003 18:55 27,6 C 40 % 1013 hPa 0,0 l/m 4,7 m/s (1 Bft) W-NW22.5 285 0,00 min 17,7 klux 12,8 C 26,3 C
20.07.2003 19:00 27,8 C 41 % 1013 hPa 0,0 l/m 0,0 m/s (0 Bft) W67.5 260 0,00 min 21,5 klux 13,3 C 27,8 C
20.07.2003 19:05 28,2 C 41 % 1013 hPa 0,0 l/m 0,2 m/s (0 Bft) NW67.5 315 5,00 min 34,4 klux 13,7 C 28,2 C
20.07.2003 19:10 28,5 C 41 % 1013 hPa 0,0 l/m 0,1 m/s (0 Bft) W67.5 260 5,00 min 42,6 klux 13,9 C 28,5 C
20.07.2003 19:15 28,6 C 40 % 1013 hPa 0,0 l/m 0,3 m/s (0 Bft) W67.5 260 5,00 min 27,0 klux 13,7 C 28,6 C
20.07.2003 19:20 27,9 C 42 % 1013 hPa 0,0 l/m 2,8 m/s (1 Bft) W45 275 0,00 min 21,6 klux 13,8 C 27,4 C
20.07.2003 19:25 28,1 C 41 % 1013 hPa 0,0 l/m 2,8 m/s (1 Bft) W45 275 5,00 min 24,9 klux 13,6 C 27,6 C
20.07.2003 19:30 29,6 C 37 % 1013 hPa 0,0 l/m 0,0 m/s (0 Bft) W22.5 275 5,00 min 36,3 klux 13,3 C 29,6 C
20.07.2003 19:35 29,6 C 36 % 1013 hPa 0,0 l/m 0,0 m/s (0 Bft) SW45 230 5,00 min 33,8 klux 12,9 C 29,6 C
20.07.2003 19:40 30,2 C 36 % 1013 hPa 0,0 l/m 0,3 m/s (0 Bft) SW22.5 230 5,00 min 34,7 klux 13,4 C 30,2 C
20.07.2003 19:45 30,2 C 36 % 1013 hPa 0,0 l/m 0,1 m/s (0 Bft) W-SW45 245 5,00 min 32,5 klux 13,4 C 30,2 C
20.07.2003 19:50 29,3 C 37 % 1013 hPa 0,0 l/m 2,2 m/s (1 Bft) W22.5 270 5,00 min 25,8 klux 13,1 C 29,1 C
20.07.2003 19:55 28,4 C 36 % 1013 hPa 0,0 l/m 4,3 m/s (1 Bft) W-SW22.5 245 0,00 min 15,7 klux 11,9 C 27,4 C
20.07.2003 20:00 27,5 C 39 % 1013 hPa 0,0 l/m 4,4 m/s (1 Bft) W22.5 260 0,00 min 11,0 klux 12,3 C 26,2 C
20.07.2003 20:05 27,4 C 40 % 1013 hPa 0,0 l/m 2,0 m/s (1 Bft) W22.5 270 0,00 min 12,6 klux 12,6 C 27,3 C
20.07.2003 20:10 26,6 C 42 % 1013 hPa 0,0 l/m 2,8 m/s (1 Bft) W22.5 275 0,00 min 8,82 klux 12,6 C 25,9 C
20.07.2003 20:15 26,4 C 43 % 1013 hPa 0,0 l/m 0,9 m/s (0 Bft) W22.5 280 0,00 min 8,59 klux 12,8 C 26,4 C
20.07.2003 20:20 26,1 C 44 % 1013 hPa 0,0 l/m 0,0 m/s (0 Bft) W 265 0,00 min 7,42 klux 12,9 C 26,1 C
20.07.2003 20:25 25,6 C 46 % 1013 hPa 0,0 l/m 0,0 m/s (0 Bft) W 265 0,00 min 5,99 klux 13,1 C 25,6 C
20.07.2003 20:30 25,3 C 47 % 1013 hPa 0,0 l/m 0,0 m/s (0 Bft) O-SO 105 0,00 min 4,52 klux 13,2 C 25,3 C
20.07.2003 20:35 25,0 C 46 % 1013 hPa 0,0 l/m 0,2 m/s (0 Bft) W22.5 270 0,00 min 4,33 klux 12,6 C 25,0 C
20.07.2003 20:40 25,1 C 48 % 1013 hPa 0,0 l/m 2,7 m/s (1 Bft) W45 280 0,00 min 6,40 klux 13,3 C 24,3 C
20.07.2003 20:45 25,1 C 46 % 1013 hPa 0,0 l/m 0,4 m/s (0 Bft) W-NW45 285 0,00 min 3,30 klux 12,7 C 25,1 C
20.07.2003 20:50 25,0 C 45 % 1013 hPa 0,0 l/m 1,8 m/s (1 Bft) W-NW22.5 290 0,00 min 2,59 klux 12,2 C 25,0 C
20.07.2003 20:55 24,7 C 46 % 1013 hPa 0,0 l/m 1,6 m/s (1 Bft) W22.5 275 0,00 min 1,67 klux 12,3 C 24,7 C
20.07.2003 21:00 24,6 C 48 % 1014 hPa 0,0 l/m 3,9 m/s (1 Bft) W-SW22.5 250 0,00 min 882 lux 12,8 C 23,0 C
20.07.2003 21:05 24,0 C 55 % 1014 hPa 0,0 l/m 5,0 m/s (1 Bft) W-SW22.5 250 0,00 min 698 lux 14,4 C 21,6 C
20.07.2003 21:10 24,2 C 52 % 1014 hPa 0,0 l/m 3,5 m/s (1 Bft) W-SW22.5 255 0,00 min 1,13 klux 13,7 C 22,8 C
20.07.2003 21:15 24,0 C 53 % 1014 hPa 0,0 l/m 3,8 m/s (1 Bft) W-SW22.5 255 0,00 min 1,08 klux 13,8 C 22,3 C
20.07.2003 21:20 23,9 C 54 % 1014 hPa 0,0 l/m 2,0 m/s (1 Bft) W-SW22.5 250 0,00 min 668 lux 14,0 C 23,7 C
20.07.2003 21:25 23,6 C 56 % 1014 hPa 0,0 l/m 4,2 m/s (1 Bft) W-SW22.5 255 0,00 min 288 lux 14,3 C 21,6 C
20.07.2003 21:30 23,0 C 60 % 1014 hPa 0,0 l/m 4,6 m/s (1 Bft) W-SW45 255 0,00 min 121 lux 14,8 C 20,6 C
20.07.2003 21:35 22,9 C 62 % 1014 hPa 0,0 l/m 2,5 m/s (1 Bft) W-SW22.5 255 0,00 min 78 lux 15,2 C 22,1 C
20.07.2003 21:40 22,8 C 63 % 1014 hPa 0,0 l/m 3,2 m/s (1 Bft) W-SW22.5 245 0,00 min 72 lux 15,4 C 21,3 C
20.07.2003 21:45 22,5 C 63 % 1014 hPa 0,0 l/m 2,7 m/s (1 Bft) W22.5 260 0,00 min 88 lux 15,1 C 21,5 C
20.07.2003 21:50 22,4 C 64 % 1014 hPa 0,0 l/m 1,9 m/s (1 Bft) W22.5 260 0,00 min 81 lux 15,2 C 22,2 C
20.07.2003 21:55 22,0 C 66 % 1013 hPa 0,0 l/m 5,1 m/s (1 Bft) W-NW67.5 285 0,00 min 50 lux 15,3 C 19,0 C
20.07.2003 22:00 21,6 C 65 % 1013 hPa 0,0 l/m 2,8 m/s (1 Bft) W-NW45 300 0,00 min 38 lux 14,7 C 20,4 C
20.07.2003 22:05 21,9 C 64 % 1013 hPa 0,0 l/m 4,5 m/s (1 Bft) W-NW22.5 295 0,00 min 16 lux 14,8 C 19,3 C
20.07.2003 22:10 22,0 C 62 % 1013 hPa 0,0 l/m 3,2 m/s (1 Bft) W-NW22.5 295 0,00 min 13 lux 14,4 C 20,4 C
20.07.2003 22:15 21,7 C 65 % 1013 hPa 0,0 l/m 1,8 m/s (1 Bft) W-SW22.5 255 0,00 min 9 lux 14,8 C 21,7 C
20.07.2003 22:20 21,5 C 66 % 1013 hPa 0,0 l/m 2,4 m/s (1 Bft) W-SW22.5 245 0,00 min 5 lux 14,9 C 20,7 C
20.07.2003 22:25 21,4 C 67 % 1014 hPa 0,0 l/m 2,1 m/s (1 Bft) W22.5 260 0,00 min 4 lux 15,0 C 21,0 C
20.07.2003 22:30 21,3 C 67 % 1014 hPa 0,0 l/m 2,4 m/s (1 Bft) W45 260 0,00 min 4 lux 14,9 C 20,4 C
20.07.2003 22:35 21,6 C 66 % 1014 hPa 0,0 l/m 3,3 m/s (1 Bft) W-SW22.5 250 0,00 min 2 lux 15,0 C 19,9 C
20.07.2003 22:40 21,5 C 66 % 1014 hPa 0,0 l/m 2,8 m/s (1 Bft) W-SW22.5 250 0,00 min 1 lux 14,9 C 20,3 C
20.07.2003 22:45 21,3 C 68 % 1014 hPa 0,0 l/m 0,0 m/s (0 Bft) SW 230 0,00 min 1 lux 15,1 C 21,3 C
20.07.2003 22:50 21,3 C 68 % 1015 hPa 0,0 l/m 0,0 m/s (0 Bft) N45 10 0,00 min 1 lux 15,1 C 21,3 C
20.07.2003 22:55 21,2 C 68 % 1015 hPa 0,0 l/m 0,0 m/s (0 Bft) N45 10 0,00 min 1 lux 15,1 C 21,2 C
20.07.2003 23:00 21,2 C 68 % 1015 hPa 0,0 l/m 1,5 m/s (1 Bft) NW22.5 305 0,00 min 1 lux 15,1 C 21,2 C
20.07.2003 23:05 21,2 C 68 % 1014 hPa 0,0 l/m 1,4 m/s (1 Bft) W-NW22.5 300 0,00 min 0 lux 15,1 C 21,2 C
20.07.2003 23:10 20,9 C 70 % 1014 hPa 0,0 l/m 0,0 m/s (0 Bft) S-SO22.5 150 0,00 min 0 lux 15,2 C 20,9 C
20.07.2003 23:15 20,9 C 70 % 1014 hPa 0,0 l/m 0,0 m/s (0 Bft) O 95 0,00 min 0 lux 15,2 C 20,9 C
20.07.2003 23:20 20,6 C 72 % 1014 hPa 0,0 l/m 0,3 m/s (0 Bft) O 95 0,00 min 0 lux 15,4 C 20,6 C
20.07.2003 23:25 20,4 C 72 % 1014 hPa 0,0 l/m 0,0 m/s (0 Bft) N-NO67.5 30 0,00 min 0 lux 15,2 C 20,4 C
20.07.2003 23:30 20,4 C 72 % 1014 hPa 0,0 l/m 0,0 m/s (0 Bft) W-NW 290 0,00 min 0 lux 15,2 C 20,4 C
20.07.2003 23:35 20,3 C 72 % 1014 hPa 0,0 l/m 0,0 m/s (0 Bft) W-NW 295 0,00 min 0 lux 15,1 C 20,3 C
20.07.2003 23:40 20,2 C 73 % 1014 hPa 0,0 l/m 0,0 m/s (0 Bft) W-NW 295 0,00 min 0 lux 15,2 C 20,2 C
20.07.2003 23:45 20,1 C 72 % 1014 hPa 0,0 l/m 0,1 m/s (0 Bft) O45 95 0,00 min 0 lux 14,9 C 20,1 C
20.07.2003 23:50 19,9 C 74 % 1014 hPa 0,0 l/m 0,0 m/s (0 Bft) NO 40 0,00 min 0 lux 15,1 C 19,9 C
20.07.2003 23:55 19,8 C 74 % 1014 hPa 0,0 l/m 0,0 m/s (0 Bft) S-SO45 165 0,00 min 0 lux 15,0 C 19,8 C
_ Min-Zeit 05:50 15:55 17:00 - 00:00 - - - - 15:55 05:50
Minimum _ 12,5 C 21 % 1012 hPa - 0,0 m/s (0 Bft) - - - - 7,7 C 12,5 C
_ Max-Zeit 16:00 05:40 00:00 00:00 13:55 - - 06:40 13:05 18:25 16:00
Maximum _ 33,2 C 88 % 1018 hPa 0,0 l/m 9,1 m/s
SO (5 Bft)
- - 5,00 min 100 klux 15,6 C 33,2 C
Durchschnitt _ 23,1 C 55 % 1016 hPa #0,0 l/m 2,2 m/s (2 Bft) O-SO - #10:35 h 35,0 klux 11,8 C 22,7 C